| time (UTC) | temp F | wind direction | speed MPH | gust MPH | rain 1hr in | rain 24hr in | rain mn in | humidity % | barometer mb |
| 20260506204009 | 61 | 257 | 6.0 | 15.0 | 0.00 | 0.11 | 0.11 | 26 | 1016.6 |
| 20260506203514 | 61 | 287 | 7.0 | 15.0 | 0.00 | 0.11 | 0.11 | 26 | 1016.7 |
| 20260506203010 | 61 | 300 | 7.0 | 14.0 | 0.00 | 0.11 | 0.11 | 29 | 1016.9 |
| 20260506202508 | 60 | 302 | 9.0 | 16.0 | 0.00 | 0.11 | 0.11 | 29 | 1016.9 |
| 20260506202007 | 60 | 304 | 7.0 | 17.0 | 0.00 | 0.11 | 0.11 | 32 | 1016.9 |
| 20260506201510 | 60 | 276 | 9.0 | 17.0 | 0.00 | 0.11 | 0.11 | 27 | 1016.9 |
| 20260506201007 | 59 | 231 | 6.0 | 18.0 | 0.00 | 0.11 | 0.11 | 28 | 1016.9 |
| 20260506200505 | 58 | 325 | 8.0 | 20.0 | 0.00 | 0.11 | 0.11 | 30 | 1016.9 |
| 20260506200006 | 58 | 254 | 10.0 | 21.0 | 0.00 | 0.11 | 0.11 | 29 | 1017.0 |
| 20260506195507 | 59 | 275 | 9.0 | 21.0 | 0.00 | 0.11 | 0.11 | 29 | 1016.9 |
| 20260506195005 | 59 | 292 | 10.0 | 17.0 | 0.00 | 0.11 | 0.11 | 29 | 1017.0 |
| 20260506194507 | 58 | 297 | 9.0 | 17.0 | 0.00 | 0.11 | 0.11 | 28 | 1016.9 |
| 20260506194007 | 59 | 277 | 11.0 | 17.0 | 0.00 | 0.11 | 0.11 | 29 | 1017.0 |
| 20260506193504 | 60 | 258 | 9.0 | 16.0 | 0.00 | 0.11 | 0.11 | 30 | 1016.9 |
| 20260506193004 | 60 | 355 | 8.0 | 17.0 | 0.00 | 0.11 | 0.11 | 31 | 1016.9 |
| 20260506192504 | 60 | 288 | 10.0 | 17.0 | 0.00 | 0.11 | 0.11 | 29 | 1016.9 |
| 20260506192003 | 60 | 270 | 10.0 | 19.0 | 0.00 | 0.11 | 0.11 | 29 | 1016.7 |
| 20260506191507 | 60 | 323 | 11.0 | 19.0 | 0.00 | 0.11 | 0.11 | 27 | 1016.9 |
| 20260506191003 | 61 | 317 | 13.0 | 19.0 | 0.00 | 0.11 | 0.11 | 26 | 1016.8 |
| 20260506190502 | 60 | 317 | 13.0 | 19.0 | 0.00 | 0.11 | 0.11 | 24 | 1016.9 |
| 20260506190002 | 60 | 17 | 11.0 | 18.0 | 0.00 | 0.11 | 0.11 | 26 | 1017.0 |
| 20260506185503 | 60 | 336 | 9.0 | 22.0 | 0.00 | 0.11 | 0.11 | 25 | 1017.0 |
| 20260506185103 | 60 | 330 | 13.0 | 22.0 | 0.00 | 0.11 | 0.11 | 26 | 1017.1 |
| 20260506184559 | 59 | 328 | 11.0 | 20.0 | 0.00 | 0.11 | 0.11 | 26 | 1017.0 |
| 20260506184101 | 59 | 42 | 9.0 | 17.0 | 0.00 | 0.11 | 0.11 | 25 | 1017.1 |
| 20260506183601 | 59 | 360 | 9.0 | 18.0 | 0.00 | 0.11 | 0.11 | 28 | 1017.2 |
| 20260506183106 | 59 | 304 | 11.0 | 18.0 | 0.00 | 0.11 | 0.11 | 30 | 1017.2 |
| 20260506182555 | 58 | 336 | 7.0 | 19.0 | 0.00 | 0.11 | 0.11 | 30 | 1017.2 |
| 20260506182054 | 57 | 263 | 3.0 | 16.0 | 0.00 | 0.11 | 0.11 | 29 | 1017.2 |
| 20260506181557 | 57 | 296 | 9.0 | 20.0 | 0.00 | 0.11 | 0.11 | 28 | 1017.3 |
| 20260506181053 | 58 | 332 | 11.0 | 20.0 | 0.00 | 0.11 | 0.11 | 29 | 1017.2 |
| 20260506180553 | 57 | 346 | 6.0 | 16.0 | 0.00 | 0.11 | 0.11 | 31 | 1017.2 |
| 20260506180053 | 57 | 301 | 8.0 | 17.0 | 0.00 | 0.11 | 0.11 | 28 | 1017.4 |
| 20260506175550 | 57 | 305 | 9.0 | 17.0 | 0.00 | 0.11 | 0.11 | 28 | 1017.4 |
| 20260506175052 | 57 | 305 | 8.0 | 19.0 | 0.00 | 0.11 | 0.11 | 32 | 1017.3 |
| 20260506174548 | 56 | 9 | 9.0 | 19.0 | 0.00 | 0.11 | 0.11 | 30 | 1017.4 |
| 20260506174047 | 56 | 304 | 9.0 | 19.0 | 0.00 | 0.11 | 0.11 | 31 | 1017.2 |
| 20260506173546 | 56 | 336 | 10.0 | 15.0 | 0.00 | 0.11 | 0.11 | 31 | 1017.3 |
| 20260506173049 | 55 | 330 | 6.0 | 15.0 | 0.00 | 0.11 | 0.11 | 31 | 1017.2 |
| 20260506172544 | 56 | 325 | 9.0 | 17.0 | 0.00 | 0.11 | 0.11 | 29 | 1017.2 |
| 20260506172043 | 56 | 320 | 8.0 | 17.0 | 0.00 | 0.11 | 0.11 | 31 | 1017.0 |
| 20260506171542 | 56 | 15 | 7.0 | 16.0 | 0.00 | 0.11 | 0.11 | 32 | 1017.0 |
| 20260506171040 | 55 | 334 | 10.0 | 16.0 | 0.00 | 0.11 | 0.11 | 32 | 1016.9 |
| 20260506170541 | 55 | 319 | 8.0 | 18.0 | 0.00 | 0.11 | 0.11 | 30 | 1016.9 |
| 20260506170045 | 55 | 344 | 12.0 | 19.0 | 0.00 | 0.11 | 0.11 | 32 | 1016.8 |
| 20260506165537 | 55 | 321 | 12.0 | 17.0 | 0.00 | 0.11 | 0.11 | 31 | 1016.8 |
| 20260506165036 | 55 | 338 | 9.0 | 16.0 | 0.00 | 0.11 | 0.11 | 32 | 1016.6 |
| 20260506164549 | 55 | 342 | 6.0 | 15.0 | 0.00 | 0.11 | 0.11 | 33 | 1016.5 |
| 20260506164033 | 55 | 360 | 7.0 | 15.0 | 0.00 | 0.11 | 0.11 | 33 | 1016.4 |
| 20260506163532 | 54 | 346 | 6.0 | 16.0 | 0.00 | 0.11 | 0.11 | 36 | 1016.3 |
| 20260506163034 | 54 | 304 | 10.0 | 16.0 | 0.00 | 0.11 | 0.11 | 33 | 1016.4 |
| 20260506162529 | 53 | 321 | 11.0 | 16.0 | 0.00 | 0.11 | 0.11 | 34 | 1016.2 |
| 20260506162028 | 54 | 311 | 10.0 | 16.0 | 0.00 | 0.11 | 0.11 | 37 | 1016.1 |
| 20260506161527 | 54 | 319 | 10.0 | 15.0 | 0.00 | 0.11 | 0.11 | 37 | 1015.9 |
| 20260506161026 | 53 | 355 | 9.0 | 16.0 | 0.00 | 0.11 | 0.11 | 36 | 1015.9 |
| 20260506160524 | 53 | 317 | 11.0 | 19.0 | 0.00 | 0.11 | 0.11 | 35 | 1016.0 |
| 20260506160023 | 52 | 306 | 12.0 | 20.0 | 0.00 | 0.11 | 0.11 | 34 | 1015.8 |
| 20260506155521 | 53 | 322 | 13.0 | 20.0 | 0.00 | 0.11 | 0.11 | 37 | 1015.7 |
| 20260506155020 | 53 | 53 | 10.0 | 15.0 | 0.00 | 0.11 | 0.11 | 37 | 1015.7 |
| 20260506154518 | 53 | 338 | 9.0 | 16.0 | 0.00 | 0.11 | 0.11 | 37 | 1015.6 |
| 20260506154017 | 53 | 343 | 8.0 | 16.0 | 0.00 | 0.11 | 0.11 | 36 | 1015.5 |
| 20260506153515 | 53 | 335 | 9.0 | 16.0 | 0.00 | 0.11 | 0.11 | 40 | 1015.4 |
| 20260506153014 | 52 | 342 | 9.0 | 15.0 | 0.00 | 0.11 | 0.11 | 43 | 1015.3 |
| 20260506152513 | 52 | 5 | 9.0 | 15.0 | 0.00 | 0.11 | 0.11 | 43 | 1015.4 |
| 20260506152011 | 52 | 355 | 9.0 | 17.0 | 0.00 | 0.11 | 0.11 | 43 | 1015.2 |
| 20260506151511 | 52 | 333 | 8.0 | 17.0 | 0.00 | 0.11 | 0.11 | 43 | 1015.3 |
| 20260506151009 | 52 | 323 | 9.0 | 18.0 | 0.00 | 0.11 | 0.11 | 43 | 1015.1 |
| 20260506150506 | 51 | 40 | 10.0 | 18.0 | 0.00 | 0.11 | 0.11 | 39 | 1015.2 |
| 20260506150006 | 51 | 5 | 8.0 | 18.0 | 0.00 | 0.11 | 0.11 | 42 | 1015.1 |
| 20260506145503 | 51 | 323 | 12.0 | 16.0 | 0.00 | 0.11 | 0.11 | 42 | 1014.9 |
| 20260506145001 | 51 | 309 | 7.0 | 12.0 | 0.00 | 0.11 | 0.11 | 49 | 1014.7 |
| 20260506144607 | 51 | 313 | 8.0 | 15.0 | 0.00 | 0.11 | 0.11 | 49 | 1014.7 |
| 20260506144059 | 50 | 315 | 9.0 | 15.0 | 0.00 | 0.11 | 0.11 | 49 | 1014.8 |
| 20260506143558 | 50 | 293 | 8.0 | 14.0 | 0.00 | 0.11 | 0.11 | 54 | 1014.7 |
| 20260506143059 | 50 | 316 | 9.0 | 14.0 | 0.00 | 0.11 | 0.11 | 52 | 1014.7 |
| 20260506142557 | 50 | 323 | 7.0 | 13.0 | 0.00 | 0.11 | 0.11 | 54 | 1014.6 |
| 20260506142058 | 49 | 355 | 9.0 | 13.0 | 0.00 | 0.11 | 0.11 | 55 | 1014.4 |
| 20260506141556 | 49 | 327 | 6.0 | 10.0 | 0.00 | 0.11 | 0.11 | 58 | 1014.3 |
| 20260506141055 | 48 | 331 | 3.0 | 6.0 | 0.00 | 0.11 | 0.11 | 60 | 1014.3 |
| 20260506140555 | 47 | 360 | 3.0 | 6.0 | 0.00 | 0.11 | 0.11 | 62 | 1014.2 |
| 20260506140055 | 47 | 315 | 2.0 | 4.0 | 0.00 | 0.11 | 0.11 | 64 | 1014.3 |
| 20260506135554 | 46 | 16 | 0.0 | 4.0 | 0.00 | 0.11 | 0.11 | 65 | 1014.1 |
| 20260506135053 | 45 | 16 | 1.0 | 4.0 | 0.00 | 0.11 | 0.11 | 66 | 1014.2 |
| 20260506134552 | 45 | 46 | 1.0 | 3.0 | 0.00 | 0.11 | 0.11 | 67 | 1014.1 |
| 20260506134052 | 44 | 46 | 1.0 | 3.0 | 0.00 | 0.11 | 0.11 | 69 | 1014.1 |
| 20260506133549 | 44 | 300 | 0.0 | 3.0 | 0.00 | 0.11 | 0.11 | 70 | 1014.0 |
| 20260506133104 | 44 | 300 | 1.0 | 7.0 | 0.00 | 0.11 | 0.11 | 71 | 1014.0 |
| 20260506132546 | 44 | 300 | 1.0 | 7.0 | 0.00 | 0.11 | 0.11 | 71 | 1013.9 |
| 20260506132046 | 44 | 322 | 0.0 | 5.0 | 0.00 | 0.11 | 0.11 | 72 | 1013.8 |
| 20260506131547 | 43 | 360 | 2.0 | 5.0 | 0.00 | 0.11 | 0.11 | 73 | 1013.7 |
| 20260506131044 | 42 | 134 | 0.0 | 1.0 | 0.00 | 0.11 | 0.11 | 73 | 1013.5 |
| 20260506130544 | 42 | 134 | 0.0 | 1.0 | 0.00 | 0.11 | 0.11 | 73 | 1013.4 |
| 20260506130043 | 43 | 360 | 0.0 | 1.0 | 0.00 | 0.11 | 0.11 | 72 | 1013.3 |
| 20260506125542 | 42 | 133 | 0.0 | 1.0 | 0.00 | 0.11 | 0.11 | 72 | 1012.9 |
| 20260506125041 | 42 | 132 | 0.0 | 2.0 | 0.00 | 0.11 | 0.11 | 71 | 1012.9 |
| 20260506124541 | 42 | 132 | 0.0 | 2.0 | 0.00 | 0.11 | 0.11 | 70 | 1012.9 |
| 20260506124042 | 43 | 132 | 0.0 | 0.0 | 0.00 | 0.11 | 0.11 | 69 | 1012.8 |
| 20260506123542 | 44 | 132 | 0.0 | 0.0 | 0.00 | 0.11 | 0.11 | 68 | 1012.7 |
| 20260506123040 | 45 | 132 | 0.0 | 0.0 | 0.00 | 0.11 | 0.11 | 67 | 1012.6 |
| 20260506122540 | 45 | 132 | 0.0 | 0.0 | 0.00 | 0.11 | 0.11 | 67 | 1012.6 |
| 20260506122040 | 44 | 132 | 0.0 | 0.0 | 0.00 | 0.11 | 0.11 | 67 | 1012.6 |
| 20260506121537 | 44 | 132 | 0.0 | 0.0 | 0.00 | 0.11 | 0.11 | 66 | 1012.6 |
| 20260506121037 | 45 | 132 | 0.0 | 1.0 | 0.00 | 0.11 | 0.11 | 65 | 1012.6 |
| 20260506120537 | 45 | 132 | 0.0 | 2.0 | 0.00 | 0.11 | 0.11 | 65 | 1012.4 |
| 20260506120052 | 45 | 132 | 0.0 | 2.0 | 0.00 | 0.11 | 0.11 | 66 | 1012.3 |
| 20260506115536 | 45 | 132 | 0.0 | 0.0 | 0.00 | 0.11 | 0.11 | 66 | 1012.3 |
| 20260506115035 | 45 | 132 | 0.0 | 0.0 | 0.00 | 0.11 | 0.11 | 67 | 1012.4 |
| 20260506114535 | 45 | 132 | 0.0 | 0.0 | 0.00 | 0.11 | 0.11 | 67 | 1012.3 |
| 20260506114035 | 44 | 132 | 0.0 | 0.0 | 0.00 | 0.11 | 0.11 | 66 | 1012.3 |
| 20260506113534 | 44 | 131 | 0.0 | 1.0 | 0.00 | 0.11 | 0.11 | 67 | 1012.2 |
| 20260506113034 | 44 | 131 | 0.0 | 1.0 | 0.00 | 0.11 | 0.11 | 68 | 1012.2 |
| 20260506112536 | 44 | 131 | 0.0 | 0.0 | 0.00 | 0.11 | 0.11 | 68 | 1012.3 |
| 20260506112033 | 44 | 131 | 0.0 | 3.0 | 0.00 | 0.11 | 0.11 | 68 | 1012.2 |
| 20260506111533 | 43 | 131 | 0.0 | 5.0 | 0.00 | 0.11 | 0.11 | 68 | 1012.0 |
| 20260506111033 | 43 | 136 | 1.0 | 5.0 | 0.00 | 0.11 | 0.11 | 68 | 1012.0 |
| 20260506110533 | 43 | 82 | 0.0 | 9.0 | 0.00 | 0.11 | 0.11 | 68 | 1012.2 |
| 20260506110032 | 44 | 98 | 2.0 | 9.0 | 0.00 | 0.11 | 0.11 | 68 | 1012.1 |
| 20260506105534 | 44 | 136 | 4.0 | 9.0 | 0.00 | 0.11 | 0.11 | 68 | 1011.9 |
| 20260506105031 | 44 | 53 | 3.0 | 14.0 | 0.00 | 0.11 | 0.11 | 67 | 1012.0 |
| 20260506104539 | 44 | 360 | 6.0 | 14.0 | 0.00 | 0.11 | 0.11 | 68 | 1012.0 |
| 20260506104030 | 44 | 88 | 5.0 | 16.0 | 0.00 | 0.11 | 0.11 | 68 | 1012.0 |
| 20260506103529 | 44 | 360 | 7.0 | 16.0 | 0.00 | 0.11 | 0.11 | 70 | 1012.0 |
| 20260506103039 | 43 | 123 | 6.0 | 15.0 | 0.00 | 0.11 | 0.11 | 71 | 1011.9 |
| 20260506102531 | 43 | 66 | 4.0 | 12.0 | 0.00 | 0.11 | 0.11 | 73 | 1011.8 |
| 20260506102027 | 43 | 59 | 3.0 | 12.0 | 0.00 | 0.11 | 0.11 | 74 | 1011.9 |
| 20260506101527 | 43 | 41 | 3.0 | 12.0 | 0.00 | 0.11 | 0.11 | 74 | 1011.7 |
| 20260506101026 | 43 | 59 | 5.0 | 16.0 | 0.00 | 0.11 | 0.11 | 76 | 1011.7 |
| 20260506100525 | 43 | 98 | 2.0 | 16.0 | 0.00 | 0.11 | 0.11 | 77 | 1011.4 |
| 20260506100023 | 43 | 70 | 5.0 | 15.0 | 0.00 | 0.11 | 0.11 | 78 | 1011.2 |
| 20260506095523 | 43 | 82 | 4.0 | 12.0 | 0.00 | 0.11 | 0.11 | 79 | 1011.1 |
| 20260506095025 | 42 | 80 | 2.0 | 9.0 | 0.01 | 0.11 | 0.11 | 80 | 1010.9 |
| 20260506094521 | 42 | 82 | 2.0 | 12.0 | 0.01 | 0.11 | 0.11 | 80 | 1010.7 |
| 20260506094019 | 42 | 80 | 4.0 | 12.0 | 0.02 | 0.11 | 0.11 | 81 | 1010.6 |
| 20260506093518 | 42 | 78 | 1.0 | 11.0 | 0.03 | 0.11 | 0.11 | 80 | 1010.4 |
| 20260506093021 | 42 | 148 | 3.0 | 11.0 | 0.05 | 0.11 | 0.11 | 81 | 1010.5 |
| 20260506092518 | 42 | 115 | 2.0 | 9.0 | 0.07 | 0.11 | 0.11 | 81 | 1010.4 |
| 20260506092016 | 42 | 71 | 3.0 | 9.0 | 0.11 | 0.11 | 0.11 | 81 | 1010.4 |
| 20260506091517 | 42 | 100 | 1.0 | 9.0 | 0.11 | 0.11 | 0.11 | 81 | 1010.2 |
| 20260506091014 | 42 | 67 | 3.0 | 11.0 | 0.11 | 0.11 | 0.11 | 80 | 1010.0 |
| 20260506090513 | 43 | 82 | 2.0 | 13.0 | 0.11 | 0.11 | 0.11 | 80 | 1010.0 |
| 20260506090011 | 43 | 115 | 2.0 | 10.0 | 0.11 | 0.11 | 0.11 | 79 | 1009.8 |
| 20260506085509 | 43 | 122 | 3.0 | 14.0 | 0.11 | 0.11 | 0.11 | 78 | 1009.7 |
| 20260506085008 | 44 | 104 | 3.0 | 13.0 | 0.10 | 0.10 | 0.10 | 77 | 1009.7 |
| 20260506084509 | 44 | 50 | 2.0 | 11.0 | 0.10 | 0.10 | 0.10 | 76 | 1009.6 |
| 20260506084010 | 45 | 360 | 3.0 | 12.0 | 0.09 | 0.09 | 0.09 | 74 | 1009.4 |
| 20260506083505 | 47 | 360 | 3.0 | 11.0 | 0.07 | 0.07 | 0.07 | 73 | 1009.3 |
| 20260506083003 | 48 | 36 | 4.0 | 15.0 | 0.05 | 0.05 | 0.05 | 71 | 1008.8 |
| 20260506082502 | 51 | 45 | 7.0 | 16.0 | 0.03 | 0.03 | 0.03 | 70 | 1008.4 |
| 20260506082100 | 52 | 72 | 10.0 | 16.0 | 0.00 | 0.00 | 0.00 | 70 | 1008.3 |
| 20260506081601 | 52 | 52 | 3.0 | 5.0 | 0.00 | 0.00 | 0.00 | 71 | 1007.6 |
| 20260506081057 | 52 | 144 | 0.0 | 3.0 | 0.00 | 0.00 | 0.00 | 70 | 1006.7 |
| 20260506080559 | 52 | 121 | 0.0 | 6.0 | 0.00 | 0.00 | 0.00 | 70 | 1006.7 |
| 20260506080104 | 52 | 109 | 0.0 | 6.0 | 0.00 | 0.00 | 0.00 | 69 | 1006.7 |
| 20260506073054 | 53 | 118 | 0.0 | 7.0 | 0.00 | 0.00 | 0.00 | 68 | 1006.7 |
| 20260506072554 | 53 | 94 | 1.0 | 7.0 | 0.00 | 0.00 | 0.00 | 68 | 1006.7 |
| 20260506072053 | 53 | 112 | 0.0 | 3.0 | 0.00 | 0.00 | 0.00 | 67 | 1006.6 |
| 20260506071551 | 53 | 114 | 0.0 | 4.0 | 0.00 | 0.00 | 0.00 | 67 | 1006.8 |
| 20260506071051 | 53 | 155 | 0.0 | 4.0 | 0.00 | 0.00 | 0.00 | 67 | 1006.8 |
| 20260506070552 | 53 | 100 | 0.0 | 4.0 | 0.00 | 0.00 | 0.00 | 67 | 1006.8 |
| 20260506062042 | 55 | 232 | 0.0 | 3.0 | 0.00 | 0.00 | 0.00 | 56 | 1006.3 |
| 20260506061540 | 55 | 230 | 0.0 | 2.0 | 0.00 | 0.00 | 0.00 | 56 | 1006.1 |
| 20260506061039 | 55 | 227 | 0.0 | 8.0 | 0.00 | 0.00 | 0.00 | 56 | 1006.0 |
| 20260506060537 | 55 | 242 | 1.0 | 8.0 | 0.00 | 0.00 | 0.00 | 57 | 1006.0 |
| 20260506051033 | 54 | 331 | 1.0 | 5.0 | 0.00 | 0.00 | 0.00 | 60 | 1005.6 |
| 20260506050533 | 55 | 347 | 0.0 | 3.0 | 0.00 | 0.00 | 0.00 | 60 | 1005.6 |
| 20260506045030 | 56 | 274 | 2.0 | 6.0 | 0.00 | 0.00 | 0.00 | 52 | 1005.4 |
| 20260506044536 | 56 | 155 | 0.0 | 2.0 | 0.00 | 0.00 | 0.00 | 52 | 1005.0 |
| 20260506044030 | 56 | 155 | 0.0 | 2.0 | 0.00 | 0.00 | 0.00 | 52 | 1005.0 |
| 20260506043533 | 56 | 150 | 0.0 | 3.0 | 0.00 | 0.00 | 0.00 | 52 | 1004.9 |
| 20260506043028 | 55 | 207 | 0.0 | 3.0 | 0.00 | 0.00 | 0.00 | 52 | 1004.8 |
| 20260506042529 | 55 | 164 | 1.0 | 3.0 | 0.00 | 0.00 | 0.00 | 52 | 1004.7 |
| 20260506042029 | 56 | 171 | 1.0 | 4.0 | 0.00 | 0.00 | 0.00 | 52 | 1004.8 |
| 20260506041529 | 55 | 163 | 0.0 | 5.0 | 0.00 | 0.00 | 0.00 | 52 | 1004.7 |
| 20260506041026 | 55 | 182 | 1.0 | 5.0 | 0.00 | 0.00 | 0.00 | 52 | 1004.7 |
| 20260506040531 | 56 | 167 | 0.0 | 3.0 | 0.00 | 0.00 | 0.00 | 52 | 1004.5 |
| 20260506040033 | 56 | 158 | 1.0 | 3.0 | 0.00 | 0.00 | 0.00 | 52 | 1004.6 |
| 20260506035527 | 56 | 168 | 1.0 | 3.0 | 0.00 | 0.00 | 0.00 | 51 | 1004.6 |
| 20260506035027 | 56 | 140 | 0.0 | 5.0 | 0.00 | 0.00 | 0.00 | 51 | 1004.4 |
| 20260506034526 | 56 | 151 | 1.0 | 5.0 | 0.00 | 0.00 | 0.00 | 52 | 1004.5 |
| 20260506034027 | 56 | 155 | 1.0 | 5.0 | 0.00 | 0.00 | 0.00 | 51 | 1004.4 |
| 20260506033525 | 56 | 132 | 0.0 | 3.0 | 0.00 | 0.00 | 0.00 | 52 | 1004.3 |
| 20260506033025 | 56 | 142 | 0.0 | 3.0 | 0.00 | 0.00 | 0.00 | 51 | 1004.4 |
| 20260506032525 | 56 | 166 | 0.0 | 3.0 | 0.00 | 0.00 | 0.00 | 51 | 1004.4 |
| 20260506032025 | 56 | 156 | 1.0 | 3.0 | 0.00 | 0.00 | 0.00 | 51 | 1004.1 |
| 20260506031525 | 56 | 166 | 0.0 | 3.0 | 0.00 | 0.00 | 0.00 | 51 | 1004.1 |
| 20260506031025 | 56 | 107 | 1.0 | 6.0 | 0.00 | 0.00 | 0.00 | 50 | 1004.1 |
| 20260506030524 | 56 | 162 | 1.0 | 7.0 | 0.00 | 0.00 | 0.00 | 50 | 1004.1 |
| 20260506030026 | 57 | 172 | 2.0 | 7.0 | 0.00 | 0.00 | 0.00 | 50 | 1004.0 |
| 20260506025524 | 57 | 147 | 0.0 | 5.0 | 0.00 | 0.00 | 0.00 | 50 | 1004.1 |
| 20260506025028 | 57 | 151 | 1.0 | 3.0 | 0.00 | 0.00 | 0.00 | 49 | 1004.1 |
| 20260506024524 | 57 | 167 | 0.0 | 4.0 | 0.00 | 0.00 | 0.00 | 49 | 1003.9 |
| 20260506024024 | 58 | 150 | 0.0 | 3.0 | 0.00 | 0.00 | 0.00 | 48 | 1003.9 |
| 20260506023524 | 58 | 175 | 0.0 | 5.0 | 0.00 | 0.00 | 0.00 | 48 | 1003.8 |
| 20260506023040 | 58 | 153 | 1.0 | 5.0 | 0.00 | 0.00 | 0.00 | 48 | 1003.7 |
| 20260506022523 | 58 | 184 | 0.0 | 3.0 | 0.00 | 0.00 | 0.00 | 48 | 1003.6 |
| 20260506022027 | 59 | 159 | 0.0 | 3.0 | 0.00 | 0.00 | 0.00 | 47 | 1003.6 |
| 20260506021533 | 59 | 148 | 0.0 | 3.0 | 0.00 | 0.00 | 0.00 | 48 | 1003.6 |
| 20260506021025 | 59 | 165 | 0.0 | 3.0 | 0.00 | 0.00 | 0.00 | 47 | 1003.4 |
| 20260506020524 | 59 | 161 | 1.0 | 5.0 | 0.00 | 0.00 | 0.00 | 47 | 1003.3 |
| 20260506020026 | 60 | 136 | 0.0 | 2.0 | 0.00 | 0.00 | 0.00 | 47 | 1003.2 |
| 20260506015525 | 60 | 184 | 0.0 | 5.0 | 0.00 | 0.00 | 0.00 | 48 | 1003.3 |
| 20260506015026 | 60 | 150 | 1.0 | 7.0 | 0.00 | 0.00 | 0.00 | 47 | 1003.3 |
| 20260506014522 | 60 | 175 | 1.0 | 7.0 | 0.00 | 0.00 | 0.00 | 46 | 1003.3 |
| 20260506014022 | 60 | 187 | 1.0 | 3.0 | 0.00 | 0.00 | 0.00 | 47 | 1003.3 |
| 20260506013522 | 60 | 138 | 0.0 | 6.0 | 0.00 | 0.00 | 0.00 | 47 | 1003.3 |
| 20260506013030 | 60 | 147 | 0.0 | 6.0 | 0.00 | 0.00 | 0.00 | 46 | 1003.3 |
| 20260506012522 | 60 | 144 | 1.0 | 6.0 | 0.00 | 0.00 | 0.00 | 46 | 1003.3 |
| 20260506012022 | 60 | 165 | 1.0 | 6.0 | 0.00 | 0.00 | 0.00 | 46 | 1003.3 |
| 20260506011521 | 60 | 147 | 1.0 | 5.0 | 0.00 | 0.00 | 0.00 | 46 | 1003.3 |
| 20260506011021 | 60 | 140 | 1.0 | 5.0 | 0.00 | 0.00 | 0.00 | 47 | 1003.3 |
| 20260506010521 | 60 | 166 | 1.0 | 4.0 | 0.00 | 0.00 | 0.00 | 46 | 1003.3 |
| 20260506010021 | 60 | 169 | 0.0 | 3.0 | 0.00 | 0.00 | 0.00 | 47 | 1003.3 |
| 20260506005521 | 60 | 163 | 0.0 | 2.0 | 0.00 | 0.00 | 0.00 | 46 | 1003.3 |
| 20260506005022 | 60 | 162 | 1.0 | 5.0 | 0.00 | 0.00 | 0.00 | 46 | 1003.3 |
| 20260506004525 | 60 | 142 | 0.0 | 4.0 | 0.00 | 0.00 | 0.00 | 46 | 1003.3 |
| 20260506004021 | 60 | 141 | 0.0 | 4.0 | 0.00 | 0.00 | 0.00 | 46 | 1003.3 |
| 20260506003520 | 60 | 161 | 0.0 | 2.0 | 0.00 | 0.00 | 0.00 | 47 | 1003.3 |
| 20260506003020 | 60 | 158 | 1.0 | 2.0 | 0.00 | 0.00 | 0.00 | 46 | 1003.3 |
| 20260506002519 | 60 | 157 | 1.0 | 4.0 | 0.00 | 0.00 | 0.00 | 46 | 1003.4 |
| 20260506002022 | 60 | 159 | 0.0 | 4.0 | 0.00 | 0.00 | 0.00 | 47 | 1003.4 |
| 20260506001518 | 60 | 153 | 1.0 | 3.0 | 0.00 | 0.00 | 0.00 | 46 | 1003.4 |
| 20260506001018 | 60 | 169 | 1.0 | 3.0 | 0.00 | 0.00 | 0.00 | 45 | 1003.4 |
| 20260506000517 | 60 | 131 | 0.0 | 4.0 | 0.00 | 0.00 | 0.00 | 45 | 1003.4 |
| 20260506000017 | 60 | 159 | 1.0 | 2.0 | 0.00 | 0.00 | 0.00 | 45 | 1003.4 |
| 20260505235517 | 60 | 159 | 0.0 | 5.0 | 0.00 | 0.00 | 0.00 | 46 | 1003.5 |
| 20260505235017 | 60 | 186 | 1.0 | 5.0 | 0.00 | 0.00 | 0.00 | 46 | 1003.5 |
| 20260505234517 | 60 | 142 | 0.0 | 7.0 | 0.00 | 0.00 | 0.00 | 47 | 1003.5 |
| 20260505234016 | 60 | 154 | 0.0 | 7.0 | 0.00 | 0.00 | 0.00 | 47 | 1003.5 |
| 20260505233516 | 60 | 140 | 0.0 | 5.0 | 0.00 | 0.00 | 0.00 | 48 | 1003.5 |
| 20260505233015 | 59 | 135 | 0.0 | 7.0 | 0.00 | 0.00 | 0.00 | 49 | 1003.6 |
| 20260505232515 | 60 | 111 | 2.0 | 7.0 | 0.00 | 0.00 | 0.00 | 49 | 1003.6 |
| 20260505232017 | 59 | 164 | 1.0 | 4.0 | 0.00 | 0.00 | 0.00 | 49 | 1003.6 |
| 20260505231532 | 59 | 123 | 1.0 | 4.0 | 0.00 | 0.00 | 0.00 | 48 | 1003.6 |
| 20260505231016 | 59 | 108 | 1.0 | 8.0 | 0.00 | 0.00 | 0.00 | 50 | 1003.7 |
| 20260505230513 | 58 | 95 | 1.0 | 6.0 | 0.00 | 0.00 | 0.00 | 51 | 1003.7 |
| 20260505230022 | 58 | 163 | 0.0 | 4.0 | 0.00 | 0.00 | 0.00 | 51 | 1003.8 |
| 20260505225513 | 58 | 164 | 1.0 | 4.0 | 0.00 | 0.00 | 0.00 | 51 | 1003.8 |
| 20260505225013 | 58 | 189 | 1.0 | 3.0 | 0.00 | 0.00 | 0.00 | 52 | 1003.8 |
| 20260505224514 | 58 | 83 | 0.0 | 4.0 | 0.00 | 0.00 | 0.00 | 52 | 1003.8 |
| 20260505224013 | 58 | 187 | 0.0 | 5.0 | 0.00 | 0.00 | 0.00 | 51 | 1003.9 |
| 20260505223513 | 58 | 150 | 0.0 | 5.0 | 0.00 | 0.00 | 0.00 | 56 | 1004.0 |
| 20260505223012 | 57 | 165 | 0.0 | 3.0 | 0.00 | 0.00 | 0.00 | 53 | 1004.0 |
| 20260505222517 | 57 | 164 | 1.0 | 6.0 | 0.00 | 0.00 | 0.00 | 57 | 1004.0 |
| 20260505222012 | 56 | 139 | 0.0 | 5.0 | 0.00 | 0.00 | 0.00 | 60 | 1004.0 |
| 20260505221511 | 55 | 169 | 1.0 | 3.0 | 0.00 | 0.00 | 0.00 | 61 | 1004.0 |
| 20260505221011 | 55 | 156 | 1.0 | 3.0 | 0.00 | 0.00 | 0.00 | 64 | 1004.0 |
| 20260505220512 | 54 | 167 | 0.0 | 9.0 | 0.00 | 0.00 | 0.00 | 65 | 1004.1 |
| 20260505220010 | 54 | 114 | 3.0 | 9.0 | 0.00 | 0.00 | 0.00 | 64 | 1004.1 |
| 20260505215510 | 55 | 117 | 1.0 | 9.0 | 0.00 | 0.00 | 0.00 | 62 | 1004.2 |
| 20260505215010 | 56 | 120 | 4.0 | 9.0 | 0.00 | 0.00 | 0.00 | 59 | 1004.4 |
| 20260505214510 | 57 | 145 | 0.0 | 4.0 | 0.00 | 0.00 | 0.00 | 58 | 1004.4 |
| 20260505214013 | 57 | 121 | 0.0 | 7.0 | 0.00 | 0.00 | 0.00 | 56 | 1004.4 |
| 20260505213510 | 57 | 119 | 0.0 | 4.0 | 0.00 | 0.00 | 0.00 | 53 | 1004.5 |
| 20260505213016 | 57 | 142 | 1.0 | 9.0 | 0.00 | 0.00 | 0.00 | 48 | 1004.6 |
| 20260505212509 | 58 | 157 | 1.0 | 9.0 | 0.00 | 0.00 | 0.00 | 49 | 1004.7 |
| 20260505212009 | 57 | 150 | 0.0 | 3.0 | 0.00 | 0.00 | 0.00 | 48 | 1004.7 |
| 20260505211511 | 57 | 165 | 0.0 | 4.0 | 0.00 | 0.00 | 0.00 | 48 | 1004.6 |
| 20260505211008 | 57 | 165 | 0.0 | 4.0 | 0.00 | 0.00 | 0.00 | 48 | 1004.5 |
| 20260505210508 | 57 | 150 | 0.0 | 5.0 | 0.00 | 0.00 | 0.00 | 49 | 1004.4 |
| 20260505210011 | 57 | 148 | 0.0 | 3.0 | 0.00 | 0.00 | 0.00 | 47 | 1004.2 |
| 20260505205509 | 57 | 163 | 0.0 | 7.0 | 0.00 | 0.00 | 0.00 | 47 | 1004.2 |
| 20260505205008 | 58 | 146 | 1.0 | 7.0 | 0.00 | 0.00 | 0.00 | 48 | 1004.2 |
| 20260505204506 | 58 | 121 | 0.0 | 4.0 | 0.00 | 0.00 | 0.00 | 48 | 1004.2 |